Regional Weather Roundup
Issued by NWS

Home | Current Version | Previous Version | Text Only | Print | Product List | Glossary On
Versions: 1 2 3 4 5 6 7 8 9 10 11 12 13 14 15 16 17 18 19 20 21 22 23 24 25 26 27 28 29 30 31 32 33 34 35 36 37 38 39 40 41 42 43 44 45 46 47 48 49 50
000
ASUS43 KFSD 251202
RWRSD

WEATHER ROUNDUP FOR SOUTH DAKOTA
NATIONAL WEATHER SERVICE SIOUX FALLS SD
600 AM CST SUN FEB 25 2018

NOTE: "FAIR" INDICATES FEW OR NO CLOUDS BELOW 12,000 FEET WITH NO
SIGNIFICANT WEATHER AND/OR OBSTRUCTIONS TO VISIBILITY.


SDZ001>005-009-010-012>017-251300-
NORTHWEST AND NORTH CENTRAL SOUTH DAKOTA

CITY           SKY/WX    TMP DP  RH WIND       PRES   REMARKS
BUFFALO          N/A     12   5  73 W17       29.61R WCI  -5
FAITH            N/A     13   9  84 W20       29.70R WCI  -5
MOBRIDGE       PTCLDY    17  11  77 SW3       29.65R
$$

SDZ012>016-024>037-041>051-057-063-072>074-251300-
SOUTHWEST AND SOUTH CENTRAL SOUTH DAKOTA

CITY           SKY/WX    TMP DP  RH WIND       PRES   REMARKS
RAPID CTY ARPT CLEAR     18   5  57 CALM      29.74R
PIERRE         CLEAR     17  10  74 W17       29.75R WCI   1
CUSTER         PTCLDY    12  -2  53 NW6       29.66R WCI   3
ELLSWORTH AFB  CLEAR     12   2  64 CALM      29.72R
PHILIP         CLEAR     11   5  77 W10       29.79R WCI  -3
PINE RIDGE     CLEAR    N/A N/A N/A MISG      29.79S
SPEARFISH        N/A     25  12  58 W9        29.72R WCI  15
WINNER         FAIR      22   9  57 W13       29.78R WCI  10
$$

SDZ004>011-016>023-039-040-251300-
NORTHEAST SOUTH DAKOTA

CITY           SKY/WX    TMP DP  RH WIND       PRES   REMARKS
ABERDEEN       MOCLDY    13   8  81 W13       29.65R WCI  -2
WATERTOWN      CLEAR      8   4  83 W14       29.61R WCI  -8
BROOKINGS      CLEAR     11   6  81 W10       29.67R WCI  -3
SISSETON         N/A     14   7  73 NW13      29.60R WCI   0
$$

SDZ017-020-022-023-036>040-048>070-251300-
SOUTHEAST SOUTH DAKOTA

CITY           SKY/WX    TMP DP  RH WIND       PRES   REMARKS
SIOUX FALLS    CLOUDY    12   6  77 W7        29.73R WCI   1
HURON          CLEAR     16  11  80 W14       29.71R WCI   2
CHAMBERLAIN    PTCLDY    20  11  69 SW15      29.78R WCI   6
MITCHELL       CLEAR     18   9  68 W15       29.76R WCI   4
YANKTON        CLEAR     23  13  65 W22       29.78R WCI   8
$$

ABBREVIATIONS USED IN REMARKS
   TC - TEMPERATURE IN CELSIUS
  WCI - WIND CHILL INDEX
   HX - HEAT INDEX
  VSB - VISIBILITY





USA.gov is the U.S. government's official web portal to all federal, state and local government web resources and services.